[[{"header":{"parameterUnit":"m.s-1","parameterCategory":1,"la1":30.2991,"la2":30.254,"lo1":-89.0895,"lo2":-89.0444,"dy":0.0017,"dx":0.0017,"nx":28,"ny":28,"refTime":"2024-07-30T21:00:00:Z","depth":0,"parameterNumber":2,"parameterNumberName":"U-component_of_WINDS"},"data":[0,0,0,0,0,0,0,0,0,0,0,0,0,0,0,0,0,0,0,0,0,0,0,0,0,0,0,0,0,0,0,0,0,0,0,0,0,0,0,0,0,0,0,0,0,0,0,0,0,0,0,0,0,0,0,0,0,0,3.5039,3.504,0,3.5172,3.5174,3.5175,3.5139,3.5136,3.5133,3.5131,3.5268,3.5274,3.528,0,0,0,0,0,0,0,0,0,0,0,0,0,3.4752,3.4758,3.5039,3.5041,3.5042,3.5172,3.5174,3.5176,3.5139,3.5136,3.5133,3.513,3.5266,3.5274,3.5281,0,0,0,0,0,0,0,0,0,0,0,0,0,3.4881,3.476,3.5039,3.504,3.5041,3.5172,3.5174,3.5176,3.514,3.5136,3.5132,3.5128,3.5264,3.5273,3.5282,3.542,0,0,3.531,3.5314,0,0,0,0,0,0,0,0,3.4873,3.4891,3.5038,3.504,3.5042,3.5135,3.5123,3.5258,3.5141,3.5102,3.5131,3.5126,3.5227,3.5239,3.5273,3.5427,3.5433,3.5311,3.5317,3.5321,3.5323,0,0,0,0,0,0,0,3.4865,3.4885,3.5092,3.504,3.5042,3.5033,3.5047,3.5149,3.5186,3.5105,3.5103,3.5119,3.5227,3.5264,3.5276,3.5435,3.5311,3.5319,3.5325,3.5329,3.5708,3.5712,0,0,0,0,0,0,3.4854,3.4878,3.5087,3.5096,3.4946,3.5042,3.5057,3.5109,3.5185,3.5192,3.5123,3.5117,3.5251,3.5265,3.5281,3.5447,3.5321,3.5329,3.5335,3.5703,3.5709,3.5713,0,0,0,0,0,0,3.4848,3.4873,3.5082,3.4986,3.5012,3.5051,3.511,3.5114,3.515,3.5198,3.5204,3.5153,3.5248,3.5268,3.5386,3.5451,3.5334,3.5342,3.5698,3.5705,3.5711,3.5781,0,0,0,0,0,0,3.484,3.4871,3.4924,3.4988,3.5017,3.5185,3.5114,3.5119,3.5167,3.5161,3.5228,3.5236,3.5246,3.5372,3.5395,3.5462,3.5349,3.5692,3.5701,3.5709,3.5773,3.5789,3.5803,0,0,0,0,0,3.483,3.4939,3.4927,3.4952,3.5084,3.5189,3.5206,3.5215,3.5172,3.5225,3.5256,3.5234,3.5441,3.5384,3.541,3.5481,3.5688,3.5698,3.5708,3.5766,3.5786,3.5803,0,0,0,0,0,0,3.4882,3.4947,3.4935,3.5067,3.5123,3.5182,3.525,3.5236,3.5305,3.5297,3.5306,3.5322,3.5442,3.5473,3.541,3.5618,3.5558,3.5574,3.5593,3.5612,3.5627,3.5617,3.5357,0,0,0,0,0,3.4909,3.4988,3.5041,3.5153,3.5181,3.5211,3.5257,3.5259,3.5317,3.534,3.5379,3.5436,3.5514,3.5565,3.5639,3.5777,3.5791,3.5838,3.5854,3.5866,3.5879,3.5953,3.5975,3.5747,3.5747,3.5746,0,0,3.4966,3.5011,3.506,3.5164,3.5207,3.5289,3.5231,3.532,3.538,3.5354,3.5467,3.5498,3.5562,3.569,3.5749,3.572,3.5945,3.5879,3.5888,3.5895,3.5966,3.5988,3.6007,3.5754,3.5752,3.5751,0,0,3.511,3.5152,3.525,3.5294,3.536,3.5379,3.5403,3.5465,3.5484,3.5597,3.5579,3.5651,3.5785,3.5832,3.5873,3.6034,3.6016,3.6058,3.6137,3.621,3.6227,3.6243,3.63,3.6321,3.6072,3.6072,3.6072,0,3.5172,3.5294,3.5302,3.5392,3.5438,3.5418,3.5517,3.556,3.5647,3.5679,3.5645,3.5812,3.5854,3.5993,3.6032,3.6066,3.6093,3.605,3.6224,3.624,3.6255,3.631,3.6331,3.6076,3.6076,3.6075,3.6075,0,3.5366,3.5451,3.5522,3.5606,3.566,3.5754,3.5777,3.5831,3.5829,3.5851,3.5967,3.6017,3.61,3.6133,3.6133,3.6272,3.6252,3.6221,3.6161,3.6281,3.6333,3.6353,3.6083,3.6081,3.608,3.6079,0,0,3.5547,3.5634,3.5659,3.5697,3.5768,3.5834,3.5927,3.6009,3.6054,3.6115,3.6193,3.6307,3.6279,3.6326,3.633,3.6394,3.6517,3.6355,3.6357,3.6383,3.6673,3.6694,3.6718,3.6506,3.651,3.6513,3.6667,0,3.5696,3.586,3.587,3.6018,3.6096,3.6078,3.6159,3.6212,3.6235,3.6305,3.6331,3.6411,3.6369,3.6397,3.6459,3.6489,3.6575,3.6478,3.6578,3.6582,3.6562,3.6745,3.6769,3.6911,3.6687,3.669,3.6693,0,3.5893,3.5959,3.6115,3.6174,3.6207,3.628,3.6355,3.6422,3.6481,3.6494,3.6546,3.6541,3.6636,3.6573,3.6705,3.6638,3.668,3.6701,3.6707,3.6716,3.6644,3.6758,3.6957,3.6978,3.6725,3.6722,3.672,0,3.6007,3.6136,3.6245,3.6278,3.6351,3.6402,3.6435,3.649,3.6538,3.6604,3.6635,3.6711,3.6753,3.6812,3.6827,3.678,3.6958,3.6896,3.6971,3.697,3.7008,3.7006,3.7216,3.7037,3.7037,3.7036,3.7036,0,3.6173,3.6269,3.6298,3.6365,3.6472,3.6483,3.6588,3.6617,3.6666,3.6739,3.6728,3.6797,3.6814,3.6885,3.6898,3.7005,3.7024,3.7036,3.7038,3.7037,3.7035,3.7064,3.7054,3.7042,3.7041,3.7039,3.7039,0,3.6319,3.6342,3.646,3.6519,3.6536,3.6612,3.6662,3.6727,3.6749,3.6841,3.6863,3.6898,3.6982,3.7004,3.7104,3.7113,3.7238,3.7231,3.7218,3.7217,3.729,3.7282,3.7525,3.7557,3.7358,3.736,3.7361,0,3.6422,3.6495,3.6562,3.661,3.6645,3.6722,3.6771,3.6784,3.6836,3.6908,3.6964,3.7046,3.7113,3.7247,3.7281,3.7358,3.7352,3.7432,3.7364,3.736,3.7352,3.7347,3.7354,3.7445,3.7447,3.7449,3.745,0,3.6603,3.6611,3.6682,3.6757,3.6816,3.6875,3.6933,3.6972,3.6994,3.7052,3.7137,3.7189,3.7291,3.7372,3.745,3.7483,3.747,3.7471,3.7492,3.7491,3.748,3.7486,3.7252,3.7465,3.7464,3.7463,3.7462,3.7461,3.6731,3.6794,3.6851,3.693,3.6975,3.7028,3.7092,3.7122,3.7193,3.7277,3.7281,3.7373,3.743,3.7532,3.757,3.7642,3.7618,3.7649,3.7657,3.7664,3.7669,3.7469,3.7656,3.7656,3.7656,3.7655,3.7655,0,3.691,3.6946,3.7018,3.7099,3.7161,3.7143,3.7206,3.7259,3.734,3.7394,3.746,3.7558,3.7637,3.7677,3.7755,3.7806,3.7802,3.7826,3.7822,3.7829,3.7687,3.766,3.7827,3.7827,3.7827,3.7827,3.7827,3.7827,3.7011,3.7118,3.7132,3.7261,3.7296,3.7386,3.7423,3.7473,3.7516,3.7625,3.7691,3.7717,3.7765,3.7847,3.7919,3.7928,3.7957,3.7984,3.7991,3.7857,3.7839,3.7823,3.7798,3.7991,3.7991,3.8127,3.8128,3.8129]},{"header":{"parameterUnit":"m.s-1","parameterCategory":1,"la1":30.2991,"la2":30.254,"lo1":-89.0895,"lo2":-89.0444,"dy":0.0017,"dx":0.0017,"nx":28,"ny":28,"refTime":"2024-07-30T21:00:00:Z","depth":0,"parameterNumber":3,"parameterNumberName":"V-component_of_WINDS"},"data":[0,0,0,0,0,0,0,0,0,0,0,0,0,0,0,0,0,0,0,0,0,0,0,0,0,0,0,0,0,0,0,0,0,0,0,0,0,0,0,0,0,0,0,0,0,0,0,0,0,0,0,0,0,0,0,0,0,0,4.613,4.6131,0,4.6262,4.6264,4.6265,4.6238,4.6236,4.6234,4.6231,4.636,4.6366,4.6371,0,0,0,0,0,0,0,0,0,0,0,0,0,4.5846,4.5851,4.6129,4.6131,4.6133,4.6262,4.6264,4.6266,4.6239,4.6236,4.6233,4.623,4.6358,4.6365,4.6372,0,0,0,0,0,0,0,0,0,0,0,0,0,4.5973,4.5853,4.6129,4.6135,4.6137,4.6262,4.6264,4.6266,4.6239,4.6236,4.6232,4.6229,4.6356,4.6365,4.6373,4.6498,0,0,4.6399,4.6403,0,0,0,0,0,0,0,0,4.5966,4.5983,4.6133,4.6135,4.6137,4.623,4.6211,4.6343,4.624,4.62,4.6231,4.6227,4.6319,4.6331,4.6363,4.6504,4.6509,4.64,4.6405,4.6409,4.6411,0,0,0,0,0,0,0,4.5957,4.5977,4.6182,4.6135,4.6138,4.6129,4.6143,4.6236,4.6278,4.6204,4.6202,4.6218,4.632,4.6355,4.6366,4.6511,4.6399,4.6407,4.6412,4.6416,4.6759,4.6762,0,0,0,0,0,0,4.5947,4.597,4.6178,4.6186,4.6041,4.6137,4.6153,4.6204,4.6277,4.6285,4.6221,4.6217,4.6342,4.6356,4.6371,4.6521,4.6408,4.6416,4.6421,4.6755,4.676,4.6764,0,0,0,0,0,0,4.5941,4.5966,4.6172,4.6078,4.6103,4.6146,4.6203,4.6208,4.6244,4.6291,4.6297,4.625,4.634,4.6359,4.6466,4.6525,4.642,4.6428,4.675,4.6756,4.6762,4.6823,0,0,0,0,0,0,4.5933,4.5964,4.6013,4.6079,4.6108,4.6268,4.6207,4.6214,4.6259,4.6254,4.632,4.6327,4.6339,4.6454,4.6475,4.6535,4.6435,4.6745,4.6753,4.676,4.6816,4.683,4.6843,0,0,0,0,0,4.5923,4.6024,4.6016,4.6041,4.6172,4.6272,4.6288,4.6302,4.6264,4.6313,4.6343,4.6325,4.6515,4.6465,4.6489,4.6552,4.6741,4.675,4.6759,4.681,4.6827,4.6842,0,0,0,0,0,0,4.5962,4.6033,4.6025,4.6151,4.6206,4.6267,4.633,4.632,4.6385,4.6378,4.639,4.6405,4.6514,4.6544,4.6487,4.6676,4.6622,4.6637,4.6653,4.667,4.6683,4.6674,4.6442,0,0,0,0,0,4.5986,4.6063,4.612,4.6225,4.6254,4.6287,4.6331,4.6337,4.6393,4.6416,4.6454,4.6507,4.6579,4.6626,4.6695,4.682,4.6832,4.6874,4.6888,4.6899,4.6911,4.6977,4.6997,4.6793,4.6793,4.6793,0,0,4.6035,4.6083,4.6131,4.6235,4.6278,4.6356,4.6307,4.6391,4.6448,4.6428,4.6533,4.6562,4.6622,4.6739,4.6792,4.6767,4.6969,4.691,4.6918,4.6925,4.6989,4.7008,4.7025,4.68,4.6798,4.6797,0,0,4.6164,4.6209,4.6302,4.6346,4.6413,4.6434,4.6457,4.652,4.6539,4.6645,4.6631,4.6697,4.6821,4.6865,4.6903,4.7048,4.7032,4.7069,4.7139,4.7204,4.722,4.7234,4.7285,4.7303,4.7081,4.7081,4.7081,0,4.6216,4.6335,4.6349,4.6436,4.6481,4.6468,4.6561,4.6602,4.6687,4.6718,4.6688,4.6843,4.6883,4.7009,4.7045,4.7076,4.71,4.7062,4.7217,4.7232,4.7245,4.7293,4.7313,4.7085,4.7085,4.7084,4.7084,0,4.6395,4.6477,4.6544,4.6629,4.6681,4.677,4.6796,4.6847,4.6848,4.6871,4.6978,4.7025,4.7103,4.7133,4.7134,4.7259,4.7241,4.7215,4.7161,4.7268,4.7314,4.7333,4.7091,4.709,4.7088,4.7087,0,0,4.6553,4.6645,4.6669,4.6707,4.6779,4.6842,4.6929,4.7007,4.705,4.7109,4.7181,4.7286,4.7261,4.7305,4.731,4.7367,4.7478,4.7334,4.7335,4.7358,4.7617,4.7637,4.7658,4.7468,4.7472,4.7475,4.7612,0,4.6688,4.6845,4.6861,4.7,4.7075,4.7064,4.7139,4.719,4.7214,4.728,4.7305,4.7379,4.7342,4.7368,4.7424,4.7453,4.753,4.7443,4.7533,4.7536,4.7519,4.7682,4.7703,4.7831,4.763,4.7633,4.7635,0,4.6868,4.6934,4.7082,4.7143,4.7175,4.7243,4.7316,4.7379,4.7436,4.7449,4.7498,4.7495,4.7582,4.7526,4.7645,4.7585,4.7623,4.7642,4.7647,4.7656,4.7592,4.7695,4.7872,4.7891,4.7663,4.7661,4.7659,0,4.6968,4.7093,4.7198,4.7231,4.7305,4.7353,4.7385,4.7439,4.7485,4.7547,4.7576,4.7647,4.7685,4.7738,4.7754,4.7712,4.7872,4.7817,4.7884,4.7884,4.7918,4.7916,4.8103,4.7943,4.7943,4.7942,4.7942,0,4.7118,4.7208,4.7244,4.7308,4.7408,4.7424,4.7521,4.7551,4.7599,4.7666,4.7659,4.7722,4.774,4.7805,4.7818,4.7913,4.7931,4.7942,4.7944,4.7943,4.7942,4.7968,4.7959,4.7947,4.7946,4.7945,4.7944,0,4.7246,4.7274,4.7387,4.7448,4.7466,4.7537,4.7588,4.7649,4.7671,4.7757,4.7778,4.7813,4.789,4.7911,4.8002,4.801,4.8123,4.8117,4.8105,4.8104,4.817,4.8163,4.838,4.8409,4.823,4.8232,4.8233,0,4.734,4.741,4.7479,4.7525,4.7561,4.7635,4.7682,4.7699,4.7747,4.7817,4.7868,4.7945,4.8007,4.8129,4.8161,4.823,4.8226,4.8297,4.8236,4.8232,4.8226,4.8222,4.8228,4.8308,4.831,4.8312,4.8313,0,4.7503,4.7513,4.7583,4.7657,4.7714,4.7773,4.7829,4.7866,4.789,4.7945,4.8025,4.8073,4.8167,4.8242,4.8312,4.8342,4.8331,4.8332,4.8351,4.835,4.834,4.8346,4.8136,4.8327,4.8326,4.8325,4.8324,4.8323,4.7617,4.7678,4.7737,4.7814,4.7858,4.7911,4.7971,4.8001,4.8069,4.8149,4.8153,4.8239,4.8292,4.8386,4.842,4.8486,4.8464,4.8492,4.8499,4.8505,4.8511,4.833,4.8498,4.8498,4.8498,4.8497,4.8497,0,4.7779,4.7817,4.7887,4.7967,4.8027,4.8014,4.8075,4.8125,4.8202,4.8254,4.8315,4.8406,4.8478,4.8516,4.8587,4.8632,4.8629,4.8651,4.8647,4.8654,4.8526,4.8502,4.8652,4.8652,4.8652,4.8652,4.8652,4.8652,4.7871,4.7974,4.7991,4.8114,4.815,4.8236,4.8272,4.8319,4.8361,4.8463,4.8524,4.8549,4.8594,4.8669,4.8734,4.8743,4.8769,4.8793,4.8799,4.8679,4.8663,4.8648,4.8626,4.8799,4.8799,4.8922,4.8923,4.8924]}]]